Location: Hochstatterhof
(48.7256°N, 10.3487°E)
Time: 03:13:03
(UTC+00:00)

Cosmos 1500 Rocket - Pass Details

Date: 26 September 2023
Orbit: 601 x 628 km, 82.5° (Epoch: 04 December)

Event Time Altitude Azimuth Distance (km) Brightness Sun altitude
Rises 03:40:59 0° 351° (N) 2,916 7.1 -15.4°
Reaches altitude 10° 03:43:14 10° 352° (N) 2,000 6.3 -15.0°
Maximum altitude 03:47:40 80° 80° (E) 633 3.7 -14.3°
Drops below altitude 10° 03:52:02 10° 168° (SSE) 1,966 6.1 -13.6°
Sets 03:54:14 0° 169° (S) 2,861 6.9 -13.3°
